Theta_e
356 355 354 354 353 354 354 353 353 353 352 349 347 346 346 345 343 342 343 344 344 343 346 347 347 348 348 347 348 344 339 338 339 340 343 346 344 340 338 340 339 339 340 344 346 346 347 349 350 349 351 351 347 347 349 348 346 344 343 342 345 347 345 344 341 338 338 337 338 340 340 338 337 338 339 338 338 340 341 341 340 338 337 336 334
356 356 354 354 354 353 353 353 353 353 351 348 345 343 346 346 341 341 343 340 340 342 342 343 344 346 346 345 348 348 341 337 338 339 341 345 343 337 338 339 339 339 340 344 346 346 347 347 348 348 349 350 346 346 346 344 344 344 344 344 346 346 345 344 340 336 338 338 338 340 339 338 338 338 339 338 338 340 340 340 339 338 336 336 336
357 356 355 355 355 354 354 354 354 352 349 347 345 343 344 343 339 340 341 337 340 343 340 338 339 341 344 343 344 348 346 340 340 341 340 343 342 337 338 339 338 340 340 344 346 346 346 346 348 350 349 348 347 346 345 343 344 345 345 345 346 346 345 344 338 335 339 339 338 339 338 338 339 339 338 338 339 340 340 340 339 338 337 335 337
357 357 356 355 356 356 355 355 354 353 350 347 343 342 340 340 339 339 339 338 340 342 338 338 338 337 342 343 339 344 348 344 340 340 338 340 341 338 338 338 338 340 341 343 345 345 344 344 348 352 350 348 348 346 345 345 345 346 346 344 344 346 346 344 340 336 337 339 339 338 337 337 339 339 338 338 339 339 340 340 339 339 337 336 336
357 357 356 356 356 356 356 355 353 352 351 347 342 342 341 340 340 339 339 339 339 339 338 339 340 341 344 343 338 340 344 343 338 338 339 337 339 339 337 337 338 339 341 343 343 344 344 343 346 351 351 349 348 348 348 348 348 347 347 345 344 345 345 344 342 338 336 338 340 339 337 338 338 338 338 338 338 339 339 339 339 338 338 337 336
358 357 357 357 356 357 357 355 353 351 349 346 344 344 342 341 340 340 340 339 339 339 339 339 339 342 344 342 339 338 339 339 338 340 342 338 338 341 340 337 337 338 339 341 341 342 343 343 344 348 352 351 348 349 350 348 348 348 346 346 345 345 345 343 342 341 337 335 338 340 339 339 339 338 338 339 339 339 339 339 339 338 338 337 335
358 358 357 357 357 357 357 354 351 350 348 347 348 346 342 341 340 340 340 339 339 339 338 338 338 339 340 338 337 337 337 338 338 339 342 341 338 341 342 337 336 337 337 338 340 341 342 343 344 345 349 351 350 349 348 347 348 348 346 346 346 345 346 344 342 342 339 336 337 339 338 338 340 339 339 339 339 339 339 338 338 338 338 337 336
357 358 357 358 357 357 355 350 345 347 350 350 349 347 342 339 338 339 339 339 339 339 338 338 338 337 337 337 336 336 337 338 339 338 340 342 339 339 340 338 336 337 337 337 338 340 341 342 344 344 346 349 349 348 348 348 348 348 345 345 345 346 346 344 343 342 341 340 340 339 338 339 340 340 339 339 339 339 338 338 338 338 338 337 337
357 358 358 357 357 356 353 348 344 348 352 350 347 345 343 339 338 338 338 338 338 338 338 337 337 337 336 337 336 336 336 337 339 339 338 340 339 338 339 338 337 337 337 337 337 340 341 342 344 345 345 346 346 348 349 348 348 346 345 344 344 345 346 345 344 343 340 341 342 340 340 340 339 339 340 339 339 338 338 338 338 338 338 337 337
356 356 357 357 357 356 353 350 349 349 350 350 348 348 345 342 339 338 337 338 338 337 337 336 336 337 337 336 335 335 336 337 338 339 338 339 339 338 338 338 338 338 338 337 337 339 341 342 342 343 345 345 344 346 348 347 349 347 344 344 344 344 346 346 345 343 340 340 343 342 341 341 340 340 339 339 339 339 337 337 337 337 337 337 337
355 355 357 356 356 357 356 355 353 350 350 351 351 349 346 343 339 338 337 337 337 336 336 336 336 336 336 337 336 336 336 336 337 337 337 338 338 338 338 338 339 338 339 338 337 338 339 341 342 342 343 344 343 344 344 345 349 349 344 343 344 345 346 345 345 344 340 338 341 342 341 341 341 340 339 339 338 339 338 337 336 336 337 337 337
356 355 356 357 357 358 357 357 356 354 353 353 352 350 348 345 341 339 338 338 339 338 337 336 336 336 336 337 337 338 338 337 337 337 337 338 338 338 338 338 338 338 339 339 338 337 337 339 341 341 341 343 342 342 343 344 349 350 344 342 345 346 345 345 345 344 341 337 338 341 341 340 341 340 339 339 339 339 339 338 338 338 337 337 337
356 356 356 357 358 359 358 357 357 356 353 350 350 349 347 345 343 341 339 339 341 340 338 337 338 337 337 338 338 339 339 339 337 337 337 337 337 337 338 337 337 338 338 338 338 337 336 337 339 340 340 342 342 343 344 344 348 350 346 342 344 344 343 346 346 343 340 338 338 340 341 340 341 340 339 339 340 340 340 339 338 337 337 337 337
355 356 356 357 358 359 358 358 357 354 349 346 346 346 345 343 342 341 340 340 341 341 339 339 340 339 339 339 340 340 340 340 339 338 337 337 337 337 337 338 337 337 337 337 337 337 336 336 339 340 341 341 342 343 345 345 346 349 348 345 343 344 346 349 347 342 338 337 338 340 341 340 340 341 340 339 340 340 339 339 339 338 336 336 337
355 356 356 356 357 357 357 358 357 353 349 347 345 345 344 342 340 340 341 341 341 340 340 341 341 340 341 341 341 341 341 341 340 339 338 337 337 338 338 338 337 337 337 337 337 337 337 337 340 343 342 341 342 344 347 347 346 347 348 347 344 345 349 349 345 341 337 334 336 337 338 339 340 340 340 340 339 340 340 339 339 339 337 337 338
354 355 357 357 357 357 356 355 355 352 350 349 346 344 343 340 338 339 339 339 340 340 340 341 341 341 340 340 340 340 341 342 341 338 338 337 337 337 337 337 337 336 336 336 337 337 337 337 340 342 343 342 342 344 347 348 347 347 348 348 346 346 348 346 341 337 334 332 332 332 332 337 341 340 339 340 339 339 340 340 339 339 338 337 337
353 355 356 357 357 358 357 355 354 352 350 349 345 342 340 339 337 337 337 338 338 338 339 340 340 340 340 340 340 340 341 341 339 338 338 338 337 337 337 337 336 337 337 336 336 337 338 338 339 341 342 342 342 344 347 348 346 346 348 347 346 347 347 343 338 335 332 331 333 331 328 331 337 337 336 339 339 337 338 340 339 339 339 338 338
352 354 356 357 357 358 357 356 353 349 346 346 344 341 340 339 337 336 335 336 336 337 337 338 338 338 339 338 339 340 340 339 338 339 340 339 339 338 337 338 338 338 338 338 338 337 338 339 339 340 342 343 342 344 347 347 345 345 346 347 346 347 347 344 339 333 329 329 333 335 330 328 330 329 328 334 335 330 332 338 339 339 339 338 338
352 354 355 356 356 357 357 355 353 349 345 343 344 344 342 339 338 336 335 334 334 335 335 336 336 336 336 336 336 338 338 337 338 340 341 341 341 340 339 340 340 340 339 339 339 339 339 339 340 341 342 343 343 343 344 346 345 345 345 345 344 345 347 347 342 335 329 325 328 331 330 327 326 324 323 329 329 324 328 335 338 340 339 338 339
350 352 354 355 355 355 355 355 354 354 351 348 349 348 345 342 340 338 336 335 334 334 334 334 335 335 335 334 334 335 336 336 337 340 342 343 342 342 342 342 342 341 340 340 339 339 340 340 341 341 342 342 342 342 342 344 346 345 344 343 342 343 347 348 345 338 331 327 325 325 325 323 322 321 320 325 326 322 326 333 337 339 338 338 339
348 351 352 354 354 354 354 355 355 355 355 354 354 352 350 348 345 341 339 338 335 333 333 333 334 333 334 334 334 334 335 335 337 338 340 341 342 343 343 343 344 343 342 340 339 339 340 341 341 341 342 342 341 341 341 342 345 345 344 342 342 343 345 348 348 342 333 330 327 324 324 322 320 319 318 322 326 323 324 330 335 337 338 338 337
348 350 350 352 354 353 354 354 354 355 355 355 355 354 353 352 348 344 344 342 338 336 334 333 333 332 332 332 332 333 333 334 336 337 338 339 340 341 342 343 343 343 341 341 340 340 340 341 341 341 341 341 341 341 340 342 344 345 344 342 341 341 341 344 347 342 335 333 330 326 325 324 321 320 318 321 327 328 326 330 333 334 338 338 335
348 348 349 350 352 354 354 353 354 354 354 355 355 354 352 350 349 350 349 345 342 341 337 333 333 331 331 332 332 332 332 333 334 335 336 337 338 339 340 341 342 342 341 341 341 342 341 341 342 341 341 341 341 341 340 341 343 344 345 343 341 340 339 341 343 340 335 335 333 328 327 326 324 322 320 321 326 329 329 331 334 335 336 339 337
347 345 346 347 349 352 352 353 354 353 352 354 355 354 353 350 350 350 348 346 346 346 343 338 335 333 332 332 332 332 332 332 333 333 334 334 336 337 338 338 339 341 341 340 341 342 343 342 342 342 342 340 340 341 341 341 342 343 344 344 342 339 338 339 339 338 336 336 334 330 329 328 326 323 323 323 324 326 326 327 332 334 332 337 340
347 346 345 345 347 349 348 350 352 350 351 353 353 354 354 352 352 350 348 348 348 349 347 343 339 338 336 334 334 334 334 333 332 332 333 334 335 337 337 336 337 339 340 341 341 342 343 343 343 342 342 340 339 340 341 341 341 341 343 344 343 340 338 338 339 338 337 336 335 332 330 330 327 325 325 325 323 323 323 323 326 328 327 331 338
345 345 345 345 346 347 345 345 346 348 350 351 351 353 354 354 353 352 352 352 351 350 349 346 343 341 341 339 338 337 336 336 335 335 336 336 337 338 338 337 337 338 340 342 341 341 342 343 343 343 342 341 339 338 339 341 341 341 341 343 344 342 339 338 338 338 337 336 335 333 331 330 328 326 326 325 323 322 322 322 323 324 324 326 333
342 341 341 343 343 343 342 341 342 346 350 350 350 351 352 353 354 353 353 354 353 352 350 347 345 343 343 341 340 340 340 339 339 339 339 339 339 339 340 340 340 339 340 342 342 341 341 342 343 344 344 343 340 338 338 339 340 341 341 342 344 343 340 338 338 337 336 336 335 334 333 331 328 326 326 325 324 323 322 322 322 322 323 325 330
342 339 337 337 337 338 338 338 341 346 349 350 351 351 350 351 353 354 353 353 354 354 351 350 347 345 344 341 341 341 341 341 341 342 341 342 342 341 341 344 344 342 341 342 343 342 341 341 343 344 344 344 343 340 338 338 339 340 341 341 342 344 342 339 337 338 337 336 335 334 334 333 329 326 325 325 323 322 322 322 322 322 323 325 330
342 344 340 334 334 335 334 335 337 342 347 349 350 351 350 350 352 353 353 353 354 354 352 350 349 346 344 343 343 343 342 342 342 342 342 343 343 343 343 345 346 345 343 343 344 344 343 343 343 344 345 345 345 343 339 337 337 338 339 341 342 343 344 341 338 337 338 337 336 335 334 335 333 327 325 325 323 321 321 322 321 322 323 323 327
336 344 340 332 331 331 331 332 333 336 342 346 349 350 350 351 351 353 352 353 353 353 352 350 349 347 345 345 345 344 343 343 342 342 343 343 343 344 345 345 346 345 344 345 345 345 345 344 344 344 345 346 345 344 341 336 335 336 338 339 341 342 343 343 340 338 338 338 337 336 334 335 335 332 328 327 325 321 320 322 322 322 323 322 324
331 338 335 328 328 328 328 330 330 329 334 340 343 345 347 350 352 352 352 352 352 353 351 349 349 348 348 347 345 344 344 343 343 343 343 343 344 345 345 346 347 346 346 345 346 347 346 347 347 346 345 346 346 344 342 338 334 335 337 337 339 341 342 344 343 340 338 338 338 338 337 335 335 334 333 332 330 325 320 321 323 322 322 323 323
332 338 337 327 327 329 327 328 328 329 331 333 337 342 345 348 351 352 352 352 352 352 350 348 349 350 349 347 344 344 344 343 344 344 344 345 345 345 347 347 347 347 347 346 346 347 347 347 349 349 347 347 347 345 343 339 334 333 336 336 337 339 340 342 343 342 339 338 338 339 339 338 336 335 335 335 335 331 324 321 324 324 323 323 324
331 340 341 333 329 329 329 328 328 328 329 330 335 339 340 342 347 352 354 353 353 353 350 348 349 349 349 346 345 345 344 344 344 345 346 346 345 345 346 346 347 348 348 348 348 348 350 351 350 351 351 347 347 347 345 342 338 334 333 335 336 337 338 340 342 343 342 340 338 339 339 339 337 335 336 337 338 337 331 324 324 326 324 322 324
332 336 339 335 330 328 328 329 328 329 333 335 337 337 338 342 347 351 351 351 352 353 352 349 347 347 347 345 344 345 344 345 346 346 346 347 345 345 346 345 348 348 348 353 353 351 355 357 353 354 356 353 349 348 346 345 343 339 335 335 335 337 337 338 340 341 343 342 341 339 339 339 339 336 336 338 338 340 337 329 325 326 325 323 324
337 337 337 332 328 327 328 328 328 330 333 337 339 342 345 347 350 349 347 347 350 351 351 349 346 345 345 344 343 344 344 345 346 346 346 346 345 346 345 346 349 348 349 356 356 353 357 359 356 355 359 358 354 350 347 347 346 343 340 337 337 337 336 337 338 339 341 343 343 342 340 339 339 338 337 338 338 340 341 335 327 324 324 324 324
344 341 335 330 327 329 329 328 328 329 332 336 341 346 349 350 351 350 348 347 347 348 349 347 345 343 343 342 343 344 344 345 346 346 347 346 346 346 346 347 349 349 351 355 355 355 358 359 357 356 357 358 358 355 350 348 347 345 343 339 337 337 336 336 337 338 340 341 342 343 343 342 341 339 338 338 338 340 342 339 332 326 323 324 325
341 336 332 330 329 329 329 329 330 330 332 338 343 347 349 349 351 352 352 349 346 346 346 345 343 342 342 343 344 343 344 345 346 346 346 346 346 346 346 348 348 350 352 353 353 356 359 359 357 356 355 357 359 357 352 350 348 345 343 338 335 336 336 336 336 337 339 341 341 342 343 343 343 341 340 340 340 340 341 341 339 334 329 326 327
338 334 333 334 332 331 331 331 332 333 335 338 343 346 347 348 350 353 354 353 347 343 342 342 342 343 344 345 345 345 345 345 345 346 346 346 347 347 348 349 348 349 351 352 353 356 357 357 358 358 356 357 358 356 354 353 350 346 344 339 336 336 336 335 336 337 338 339 341 343 342 342 344 343 342 341 341 342 342 342 342 341 338 333 332
340 338 337 336 334 334 334 335 336 336 339 340 341 344 346 347 348 351 354 355 349 343 343 343 344 346 346 345 345 344 345 344 344 345 346 346 348 349 349 350 349 349 351 353 356 357 356 356 359 359 358 358 358 358 356 354 351 349 347 343 340 338 337 335 336 336 337 339 341 343 342 341 343 344 343 342 342 344 345 343 342 343 342 339 335
344 343 341 339 340 338 340 344 343 339 340 341 339 341 344 345 346 348 352 355 351 346 345 344 344 344 344 343 344 343 343 344 344 345 346 347 347 348 349 349 350 352 353 354 356 358 357 358 360 359 358 358 359 358 358 357 354 352 351 349 346 343 339 337 336 336 337 339 341 345 346 343 342 344 344 343 344 346 347 345 344 344 344 342 338
348 347 344 344 344 342 343 346 344 340 341 341 338 340 342 344 344 344 347 352 352 347 343 342 343 343 343 343 343 343 344 345 346 346 347 348 348 349 349 349 351 355 357 356 356 357 357 359 359 359 358 359 358 358 358 358 357 355 353 352 351 349 343 339 337 337 338 339 341 346 348 347 343 343 345 345 345 347 348 347 345 345 345 343 338
351 350 349 349 348 344 343 344 343 342 343 342 340 340 341 341 342 342 343 348 352 351 346 343 342 342 344 345 344 345 345 346 346 347 348 349 349 350 349 349 352 356 357 357 356 355 356 358 359 359 358 359 358 357 357 357 357 356 355 353 352 351 349 345 343 340 339 339 339 344 347 347 344 344 345 345 345 348 348 348 346 345 345 342 338
352 352 352 352 351 347 344 344 345 345 344 343 342 341 341 341 343 344 346 351 356 356 353 350 346 344 345 347 346 346 346 346 347 347 348 348 348 349 350 350 352 355 356 358 358 357 357 359 359 359 359 359 359 358 358 357 357 356 355 355 353 352 351 350 348 345 342 341 342 342 343 343 344 345 345 345 346 348 349 348 346 345 345 343 337
351 352 352 352 353 352 348 346 345 345 346 349 349 345 344 344 344 343 346 350 353 353 352 350 348 347 347 349 351 349 347 347 348 347 348 349 349 350 352 353 354 356 357 360 361 359 359 360 359 359 359 359 359 359 359 358 357 356 355 354 354 353 353 352 352 351 350 349 348 347 345 343 341 343 345 345 346 349 349 348 347 345 344 341 336
351 351 352 353 354 354 353 351 350 347 346 349 350 347 345 345 345 343 343 345 346 346 346 347 347 347 347 349 351 351 349 348 349 350 350 350 350 352 353 354 357 359 360 361 362 360 360 360 359 359 360 359 359 360 359 358 357 356 355 355 354 353 352 353 353 352 354 355 354 351 350 348 343 341 344 346 347 349 349 348 347 344 341 338 335
350 351 352 353 353 354 354 353 352 351 349 349 347 346 345 345 345 345 345 345 346 346 346 347 347 348 348 349 351 353 353 351 350 352 354 353 353 354 354 355 359 361 360 361 362 361 361 360 360 360 360 360 360 360 359 359 359 357 357 356 355 354 354 354 353 353 354 355 355 353 352 350 346 342 343 345 347 348 349 347 345 343 339 336 333
349 349 350 352 352 353 353 353 353 352 353 352 351 351 350 349 349 348 347 347 347 347 347 348 349 350 350 350 351 354 356 357 354 354 356 357 358 358 359 360 361 361 360 361 362 361 361 360 360 361 361 360 360 360 360 360 359 358 357 357 357 356 356 355 354 354 354 353 354 354 353 352 349 345 344 345 347 348 348 346 344 341 339 335 333
348 349 349 350 350 350 351 352 352 352 353 354 354 354 354 355 355 355 355 355 353 351 349 349 349 350 350 351 352 353 355 359 360 359 359 361 361 361 361 361 361 360 360 361 361 361 361 360 360 360 360 360 361 361 361 361 359 358 358 358 358 357 356 355 355 354 354 353 352 352 353 352 351 349 348 349 349 349 348 347 343 341 338 335 333
348 348 348 348 348 348 349 349 349 350 351 351 351 352 354 355 356 357 359 360 359 358 357 354 354 355 353 352 353 353 351 354 358 359 359 360 359 359 360 361 361 361 361 361 361 361 361 360 361 360 360 361 361 361 361 361 361 359 357 357 357 356 356 355 355 354 352 350 350 351 352 352 351 350 349 349 349 347 346 344 341 339 337 334 333
347 346 346 346 346 346 347 347 347 348 348 348 349 349 350 352 353 354 356 358 359 360 360 359 359 360 359 357 358 358 357 356 357 358 359 358 357 356 357 357 358 359 359 359 360 360 360 360 361 361 361 361 361 361 361 361 361 360 358 357 357 356 356 355 355 354 351 348 348 349 350 351 351 350 349 349 348 346 344 341 339 338 337 334 333
346 346 346 346 346 346 346 346 346 346 346 347 348 348 348 350 351 352 354 355 354 353 352 353 352 353 353 353 355 356 356 356 357 359 360 359 359 358 357 356 355 356 356 356 357 356 357 357 358 359 359 359 360 361 360 360 361 360 359 358 358 357 357 356 355 354 351 348 347 348 348 349 350 349 348 348 347 344 342 340 339 339 337 334 333
Wind_Speed
25 28 30 31 30 29 27 26 27 29 31 32 34 32 30 31 32 31 29 28 28 26 23 21 21 21 21 21 20 21 24 24 23 22 20 18 19 22 20 18 18 17 15 15 14 13 12 10 10 9 8 8 8 6 6 6 5 5 5 4 3 3 3 3 3 2 1 1 1 2 2 2 2 3 1 0 2 3 4 5 6 6 6 7 7
23 27 30 31 31 30 28 27 28 30 33 35 38 37 32 31 36 32 29 33 33 30 28 27 26 25 24 24 22 21 24 25 24 23 22 19 21 23 20 19 19 17 16 15 14 14 12 11 10 9 8 8 7 7 6 6 6 5 4 3 2 3 2 2 1 2 2 2 4 4 3 3 3 2 1 1 3 4 4 4 6 6 6 7 7
24 27 30 31 31 31 31 29 29 31 34 36 38 39 36 36 39 37 34 37 34 30 32 33 30 29 26 25 24 21 21 24 23 22 22 21 22 22 20 20 20 18 17 15 15 15 13 12 10 9 9 8 7 7 6 6 6 5 4 3 2 2 2 2 1 3 3 3 5 5 5 4 3 2 2 2 3 4 4 4 5 5 5 7 7
25 26 29 30 31 32 33 32 31 31 33 36 39 41 41 41 41 40 39 38 36 33 35 35 33 31 26 25 26 22 20 22 23 23 23 22 22 21 20 21 20 18 18 16 15 15 14 13 11 9 9 8 8 7 6 6 5 5 4 3 3 2 2 2 1 3 4 5 5 4 4 4 4 4 4 4 4 4 4 4 4 4 4 6 6
26 27 28 31 32 33 33 33 33 33 34 37 40 41 42 42 41 41 40 39 38 38 37 36 34 31 25 25 28 26 23 24 25 24 24 24 23 22 21 21 20 19 18 17 16 15 15 14 12 11 10 9 9 7 7 6 5 4 4 4 3 3 2 2 2 3 5 7 6 4 4 3 4 5 5 5 4 4 4 4 3 4 3 4 5
27 28 29 30 32 31 32 34 35 36 37 37 38 40 41 42 42 41 41 40 40 39 38 38 37 33 28 28 30 30 29 28 27 26 25 25 24 22 21 21 20 20 19 18 17 16 15 15 14 13 11 11 10 8 7 7 5 5 5 5 4 4 3 3 4 5 5 7 7 6 3 2 3 5 5 5 4 4 4 4 4 4 3 3 4
26 28 29 30 31 32 33 36 38 37 38 37 36 37 40 41 42 42 42 41 41 40 40 39 38 37 34 33 32 31 31 31 30 28 25 25 24 22 22 22 21 20 20 19 18 17 16 16 15 15 14 13 11 10 8 7 6 6 6 5 5 5 4 4 5 6 6 6 7 6 4 2 3 4 4 4 5 5 5 4 5 5 4 4 3
28 29 30 31 32 35 37 40 42 40 36 36 37 38 40 41 42 42 41 42 42 41 40 39 39 38 36 35 34 33 33 32 31 29 27 26 24 23 23 22 21 20 20 20 19 18 18 16 16 16 16 15 14 12 9 7 7 6 6 7 6 6 5 5 6 7 7 6 7 7 5 5 5 4 4 4 3 4 4 4 5 5 5 5 4
29 30 32 33 34 36 39 41 42 39 35 37 39 40 40 41 41 42 42 42 42 41 40 39 38 37 36 35 35 34 34 33 31 30 29 27 26 24 24 23 22 21 21 21 20 18 18 17 16 16 16 17 16 13 10 8 7 7 7 8 7 6 6 5 7 9 7 6 8 8 6 6 5 5 5 4 4 4 3 3 4 5 6 6 6
30 31 33 35 36 37 38 38 39 39 38 39 39 39 40 41 42 42 42 42 42 41 40 39 38 37 37 36 36 35 35 34 33 32 30 28 27 26 25 24 23 22 22 23 22 20 19 18 17 16 16 16 16 14 12 9 8 8 8 8 8 7 7 6 7 9 9 8 8 8 7 6 6 6 5 5 5 5 4 4 4 5 6 6 6
30 31 32 34 36 35 34 34 36 39 38 38 38 39 41 43 43 43 42 42 42 42 41 40 38 37 37 36 36 36 36 35 34 34 32 30 28 27 26 26 25 24 23 24 24 22 20 19 18 17 16 16 16 14 13 11 9 9 9 9 9 8 8 8 7 9 10 10 9 8 8 7 6 6 5 5 6 5 5 5 4 3 4 5 5
29 30 31 32 33 33 32 33 35 36 37 38 39 39 42 44 45 44 44 43 42 42 42 41 39 38 37 37 37 37 37 36 36 35 33 31 30 28 27 27 26 25 25 25 25 23 22 21 19 18 17 16 16 15 14 12 10 9 10 10 9 9 9 9 8 9 10 10 10 9 8 8 7 7 5 5 6 5 5 4 4 3 3 3 3
29 30 30 31 32 33 34 36 36 38 40 42 42 42 43 45 46 45 45 44 42 42 42 41 40 40 39 38 38 38 38 37 37 35 35 33 31 29 29 28 27 26 26 26 26 24 23 22 21 20 19 17 16 16 14 13 12 11 11 11 11 11 11 9 8 9 10 10 9 9 9 8 8 8 6 6 5 5 5 4 4 3 2 2 2
29 30 31 32 33 35 37 38 39 41 44 45 45 45 46 47 47 47 46 45 44 43 42 42 42 41 40 39 39 39 39 39 38 37 36 35 33 31 30 29 28 27 26 26 26 25 24 22 21 20 19 18 17 17 15 14 14 13 13 13 13 12 10 9 9 9 11 11 10 10 10 9 9 8 8 7 6 6 5 4 4 3 3 3 2
29 30 32 33 35 37 38 38 40 43 45 45 46 47 48 48 49 48 47 46 46 45 44 44 43 42 41 40 40 40 39 39 39 38 37 36 35 33 31 30 29 28 26 26 26 25 25 23 21 19 19 19 18 17 16 15 15 15 15 14 14 13 10 10 10 10 12 12 11 12 11 9 10 10 9 8 7 6 5 5 5 4 4 3 3
28 30 31 33 34 36 39 40 41 44 45 45 46 47 49 49 49 48 48 47 47 46 46 45 44 44 42 41 41 41 40 39 40 39 38 37 36 34 32 31 30 28 27 27 26 26 26 25 23 20 19 19 18 18 17 16 16 17 17 16 16 14 11 11 11 12 13 13 12 13 13 11 10 10 10 10 9 8 7 7 7 6 5 4 3
28 31 32 33 34 35 38 41 43 45 46 47 47 47 48 48 48 48 47 47 47 47 47 46 46 45 44 43 42 41 41 41 41 40 39 38 37 35 33 31 30 29 28 27 27 27 27 27 25 23 21 20 19 19 18 18 18 18 18 18 17 16 14 13 13 14 15 14 13 14 14 13 12 13 12 11 11 11 10 9 9 8 7 6 4
28 30 30 31 33 35 37 39 43 47 49 49 49 48 46 46 47 47 47 48 48 47 47 46 46 46 45 45 44 42 42 43 42 41 40 39 38 36 34 32 30 29 29 28 28 27 27 28 27 25 24 22 21 20 19 19 19 19 20 20 18 17 16 14 15 16 17 16 15 15 15 14 14 14 13 12 13 12 11 10 10 10 9 8 6
24 26 27 29 33 35 37 38 42 46 49 50 49 48 46 45 45 45 47 48 47 47 47 47 46 46 46 46 45 44 43 43 41 41 40 40 39 37 35 33 32 30 29 29 29 28 28 28 27 26 25 24 23 22 21 21 20 20 22 21 20 20 18 16 15 17 19 18 18 17 17 16 15 14 13 13 13 12 11 11 11 11 11 9 8
24 25 27 30 33 35 36 37 38 40 44 46 45 46 47 46 45 45 46 47 47 47 47 48 47 47 47 46 46 45 44 43 42 42 42 41 40 38 36 34 33 32 31 30 30 30 29 29 28 27 27 26 25 23 23 23 22 22 23 23 23 23 20 17 16 18 20 21 20 19 19 18 16 16 14 14 14 12 12 12 12 12 11 10 9
26 26 28 30 32 33 33 34 34 34 36 38 40 43 44 44 45 46 46 46 47 48 48 48 48 48 48 48 47 46 45 45 44 43 43 42 41 40 38 36 35 34 33 32 32 32 31 30 29 28 28 28 27 25 25 25 24 24 25 25 24 25 22 18 16 19 22 22 21 21 20 19 18 17 16 15 14 13 12 12 13 12 12 12 11
24 24 25 26 28 28 29 30 30 31 33 36 38 39 41 43 45 46 46 46 46 47 48 48 48 48 48 48 48 47 46 46 45 45 44 44 43 42 40 38 37 36 35 34 34 33 33 32 31 30 30 29 29 27 26 27 27 26 26 25 25 27 26 22 19 21 24 24 23 22 22 21 20 18 17 16 15 14 13 13 14 13 13 13 12
17 18 19 20 21 22 24 27 30 32 34 35 36 38 41 45 45 43 45 47 47 46 47 47 48 48 48 48 48 47 47 46 46 46 45 44 44 43 41 40 38 38 38 37 36 35 34 34 34 33 32 31 30 29 29 29 29 29 28 27 26 28 29 27 25 26 26 25 25 25 24 23 22 21 19 17 16 16 15 15 15 15 14 14 13
12 15 16 17 18 20 24 27 31 33 34 34 34 36 40 44 46 45 47 47 46 46 46 46 47 47 47 48 48 47 47 47 46 46 46 45 44 43 43 41 39 39 40 39 37 36 36 35 35 35 35 34 33 32 31 31 31 31 30 28 28 29 30 30 29 29 28 27 27 27 26 26 25 24 21 20 18 18 18 17 17 17 15 14 14
11 13 15 17 19 21 25 28 31 34 34 34 35 35 36 39 43 46 47 46 45 45 46 47 46 46 46 47 47 47 48 48 47 47 47 46 46 45 44 43 41 39 40 40 39 38 37 37 38 38 38 37 36 35 34 33 33 33 32 30 29 29 30 31 31 31 30 29 28 28 27 28 28 27 24 22 21 20 19 18 18 19 18 15 15
10 12 14 17 20 23 25 27 31 33 33 34 35 35 34 35 37 39 39 40 42 44 45 47 47 46 47 47 47 48 48 48 48 47 47 47 47 46 46 45 42 40 40 40 40 40 39 39 39 39 39 39 38 38 37 36 35 35 34 32 31 31 31 32 32 32 31 30 29 29 28 29 30 30 27 25 24 22 21 20 20 20 19 17 16
8 10 13 16 18 21 24 26 28 30 30 32 34 35 34 34 34 34 34 35 38 42 45 47 48 48 48 48 47 47 47 47 47 47 47 47 46 46 46 45 43 41 40 40 41 41 40 39 39 39 39 39 39 40 40 39 37 37 36 35 34 33 33 33 33 33 33 32 31 30 30 30 32 31 30 28 27 25 23 22 22 21 20 19 17
8 10 13 15 17 19 21 23 25 27 29 30 32 33 34 35 34 33 33 34 36 40 44 46 48 49 50 50 49 48 47 47 46 46 46 46 46 45 45 44 44 42 41 40 41 42 41 40 39 40 40 39 40 41 42 42 40 39 39 38 37 35 34 34 35 35 34 33 33 33 32 32 33 32 31 30 30 28 26 25 24 22 21 21 19
6 9 10 12 13 15 16 19 21 24 28 30 31 33 34 36 36 35 35 35 36 39 43 46 48 50 51 51 50 49 48 47 47 47 47 47 46 45 45 44 44 43 41 39 39 40 40 40 40 40 40 40 40 42 44 44 43 42 42 40 39 38 36 35 36 36 35 35 34 34 34 34 34 34 32 31 31 29 28 27 26 25 24 23 22
9 7 8 7 7 10 11 13 16 20 26 30 31 33 34 35 35 35 36 36 36 39 43 46 48 50 50 50 50 49 49 48 48 48 49 48 47 46 46 46 45 44 42 40 39 40 40 40 40 40 41 41 42 43 44 46 45 44 44 42 41 41 39 37 37 37 37 36 36 36 36 36 36 36 33 31 30 30 29 28 27 26 25 24 24
14 10 10 8 7 9 11 11 13 16 22 27 31 33 34 33 33 35 37 37 37 39 43 46 47 48 48 48 49 49 48 48 48 48 49 49 48 48 47 47 46 46 44 42 41 41 41 40 39 40 41 42 43 44 45 46 47 46 45 45 43 42 41 39 38 39 39 38 38 38 38 38 38 37 35 32 31 30 29 28 27 27 25 24 24
18 14 15 16 15 15 16 16 15 15 18 23 28 32 34 34 34 35 35 35 36 39 43 46 46 46 47 48 48 47 47 47 47 48 49 49 48 48 48 48 47 47 46 45 43 43 42 42 41 40 40 42 43 44 46 47 47 46 46 46 45 44 43 41 40 41 40 39 39 38 39 39 39 39 36 34 32 31 30 29 28 26 25 23 23
20 16 16 19 20 19 19 19 19 17 17 19 23 28 32 34 34 33 31 32 36 39 42 45 45 45 47 47 46 45 46 46 47 48 48 48 48 48 48 48 48 47 46 45 44 43 39 40 43 39 38 43 44 44 46 47 46 46 45 46 47 47 46 43 42 42 42 40 39 39 39 40 40 39 37 35 34 33 31 30 27 26 25 24 23
21 20 19 21 23 24 23 23 22 19 17 17 20 24 28 31 32 32 33 35 37 38 40 43 45 46 46 46 45 45 45 45 46 47 47 47 47 46 46 48 48 48 46 40 40 40 33 32 38 34 31 37 43 45 46 47 46 46 45 45 47 48 48 46 44 44 43 42 41 40 40 41 41 40 38 36 36 35 33 31 29 27 26 26 25
21 22 23 26 28 29 28 27 24 20 17 18 20 22 25 28 30 33 36 38 39 39 40 42 45 46 46 45 44 44 45 45 46 47 47 47 47 45 46 47 47 49 47 37 34 36 31 28 32 30 26 30 37 43 47 46 46 46 44 44 45 46 48 48 46 45 46 44 43 42 41 41 40 40 39 38 37 37 34 31 31 30 28 28 28
18 21 25 28 30 30 28 26 23 21 18 18 19 20 22 25 27 31 36 38 40 41 42 43 44 44 44 44 44 44 45 45 45 46 47 47 47 46 46 47 47 48 46 38 34 33 30 27 29 30 30 29 31 38 45 47 46 46 44 45 46 46 48 49 48 48 47 46 46 44 43 42 41 40 40 39 38 38 35 32 32 31 30 29 28
21 24 27 28 29 29 26 24 22 21 18 17 17 18 21 24 25 28 32 36 40 42 43 44 43 42 42 42 43 44 44 44 45 46 47 47 46 46 46 47 48 47 44 43 40 34 30 29 30 32 33 32 30 35 43 46 46 46 45 46 47 47 49 50 50 50 49 49 49 48 47 44 42 41 41 39 39 38 35 34 33 32 31 29 27
23 25 25 25 26 27 25 23 21 19 17 17 17 18 21 24 25 26 29 33 38 41 42 43 42 41 42 42 42 43 44 44 45 45 46 45 45 46 45 45 46 45 44 44 42 38 35 32 31 32 32 31 31 34 39 44 46 47 46 46 46 47 49 51 51 50 51 51 49 49 49 47 44 43 42 40 40 38 35 35 35 32 31 29 26
20 21 23 24 24 24 22 20 19 17 16 17 17 17 20 23 25 25 26 30 36 39 40 41 42 41 41 41 41 41 41 41 42 43 44 44 44 44 44 43 43 43 44 41 37 37 38 33 30 33 33 31 32 34 37 41 45 45 44 44 45 47 49 51 51 51 52 53 50 48 49 49 46 44 43 42 41 39 35 36 35 32 31 30 27
17 19 21 21 20 19 15 13 15 17 16 17 17 17 19 21 22 24 26 28 32 33 34 36 38 39 40 39 38 37 37 38 40 42 42 42 42 42 42 43 42 40 41 40 37 36 36 32 32 33 32 32 33 33 35 40 42 42 42 43 44 47 50 52 52 51 52 53 51 46 46 49 49 46 44 44 43 39 36 36 36 33 32 31 28
15 17 18 15 14 14 12 12 16 17 16 17 17 17 18 18 20 22 24 24 25 27 29 30 32 35 36 36 35 35 36 37 38 39 40 40 41 41 41 41 41 37 36 38 38 37 34 32 33 32 30 33 36 33 34 38 41 42 43 43 44 47 49 50 51 52 52 53 53 46 40 44 49 48 45 45 43 40 36 35 35 33 31 31 28
11 12 10 9 10 11 12 13 14 14 16 18 18 17 17 17 17 19 20 20 20 22 25 27 28 31 32 33 34 34 35 36 36 37 39 39 39 39 40 40 39 36 36 37 39 39 35 32 33 32 32 36 37 35 35 39 42 44 45 46 46 47 47 47 49 51 52 53 53 48 43 45 49 48 46 45 44 41 36 34 34 31 30 31 29
7 6 5 5 8 9 11 12 12 13 14 15 17 17 17 16 17 18 19 18 18 19 22 24 26 28 30 31 31 32 32 33 34 35 35 36 37 38 39 40 39 38 37 35 34 35 35 34 33 34 35 36 35 35 37 41 43 43 45 47 48 47 46 47 48 51 52 52 52 50 49 50 49 45 45 46 45 42 37 34 33 32 31 31 30
5 5 4 3 3 5 7 9 11 13 13 13 15 18 19 19 20 22 21 20 19 20 21 22 22 24 26 28 28 29 30 30 31 32 32 34 36 36 37 38 36 33 32 30 28 29 33 33 33 33 35 35 33 34 38 42 43 43 44 45 45 45 46 48 49 51 50 48 48 48 47 49 48 44 43 45 46 42 37 34 34 32 31 30 29
3 3 2 1 1 1 1 3 7 11 13 15 15 17 19 20 19 19 18 18 19 20 20 20 19 20 22 23 25 27 28 28 28 29 31 33 34 35 36 35 30 25 25 25 26 28 31 32 32 33 35 34 33 34 38 42 44 44 44 44 44 43 44 46 50 51 45 38 38 39 40 42 44 43 43 45 44 40 36 35 34 32 31 31 30
2 1 1 2 1 3 4 4 4 5 8 11 13 14 16 16 16 15 16 16 16 17 17 16 16 17 18 20 21 22 23 24 25 25 27 29 30 32 33 32 27 24 24 24 24 26 30 32 33 33 33 33 34 35 38 41 44 45 46 47 46 45 44 44 47 50 45 37 36 38 39 41 42 42 45 47 44 39 35 34 33 33 34 33 33
1 1 2 2 2 3 4 5 6 6 5 5 6 7 8 10 10 11 12 13 13 14 14 14 15 16 17 17 18 19 19 19 20 22 23 23 23 24 25 26 25 25 26 27 26 26 28 32 33 33 31 32 34 36 39 43 46 46 47 49 50 48 46 44 46 49 48 45 44 43 42 42 42 42 44 44 41 38 37 37 36 37 37 34 34
2 2 2 3 3 3 4 5 7 7 6 6 6 6 5 4 4 5 6 7 8 10 11 12 13 13 14 15 16 18 18 17 17 19 20 20 20 20 21 23 24 25 27 29 30 30 30 31 32 32 33 34 35 35 37 42 47 48 47 48 49 49 49 49 50 52 52 50 50 48 45 43 41 39 38 37 37 38 40 41 41 40 37 34 33
3 3 4 4 5 5 5 6 6 6 7 7 8 7 6 6 5 4 4 5 5 7 8 8 9 9 10 12 12 14 15 15 15 17 18 20 21 21 21 22 23 24 26 27 29 31 31 30 31 32 34 36 37 36 34 38 44 45 44 45 47 48 50 51 51 52 53 51 49 48 47 45 43 40 38 37 38 40 42 43 41 39 35 33 34
4 5 6 7 7 6 6 6 6 6 7 7 9 9 8 7 6 5 5 5 5 6 6 6 6 6 6 6 7 8 9 11 13 14 15 18 19 19 21 23 25 26 28 29 30 32 33 32 34 36 36 37 38 37 34 36 41 43 43 44 45 45 48 51 49 50 54 53 50 48 47 46 46 45 43 42 42 43 45 43 40 37 36 36 37
7 8 8 10 10 9 8 7 7 7 8 8 9 10 10 8 7 6 5 5 6 7 7 6 6 5 4 4 5 5 6 7 9 10 11 13 14 15 18 21 24 27 29 31 33 35 36 37 39 41 43 42 42 41 40 41 45 47 46 45 44 44 47 50 49 50 56 58 54 52 52 51 50 49 47 46 46 45 45 43 40 39 41 41 39
Wind_Direction
189 188 189 191 193 193 192 193 195 197 200 204 206 204 203 203 204 203 201 201 203 204 201 200 201 202 204 207 210 214 215 216 218 218 218 219 222 226 225 223 227 228 227 227 225 223 225 228 234 241 245 254 262 259 253 252 251 251 265 285 314 329 328 349 7 24 33 31 100 144 151 146 192 212 202 137 163 151 131 110 99 84 75 72 71
188 187 189 191 193 194 194 193 194 197 201 206 210 208 204 205 209 207 204 207 209 208 208 208 206 205 205 208 209 213 218 219 219 220 219 219 225 226 225 225 229 230 229 228 228 229 229 232 236 241 246 251 258 259 255 251 248 248 259 271 289 305 314 319 354 60 84 106 122 138 149 158 189 223 229 191 172 159 146 124 109 99 91 85 79
190 189 189 191 192 194 195 196 196 199 204 208 211 212 211 210 213 214 212 211 210 209 212 215 213 211 210 212 212 212 220 223 221 223 222 221 227 228 227 228 230 230 229 228 231 232 232 233 237 240 244 246 252 257 256 250 244 241 242 247 275 294 298 303 352 106 122 145 143 148 156 162 171 191 202 182 175 170 152 141 125 111 105 98 90
190 191 190 191 191 193 196 198 200 201 205 211 214 215 215 214 213 214 215 214 213 213 215 217 219 218 216 218 219 216 219 225 224 224 225 224 227 229 227 229 231 230 229 229 231 234 235 235 235 237 240 242 246 253 256 252 242 234 233 240 260 268 270 305 314 136 147 161 162 151 147 164 165 161 176 171 174 182 165 164 152 128 120 107 99
191 192 192 192 192 194 197 200 203 204 207 213 216 216 216 215 214 214 216 216 216 217 217 218 220 220 216 219 224 222 221 226 226 225 225 225 225 228 228 228 229 230 228 228 230 233 237 238 236 234 236 240 244 250 255 253 242 232 234 236 248 244 208 214 244 204 175 177 177 164 155 169 163 151 164 170 175 193 181 185 183 149 143 132 119
193 195 194 194 194 193 196 202 205 207 211 215 217 217 217 217 216 216 216 218 218 219 219 219 220 220 218 219 221 222 223 225 225 223 224 225 224 226 230 230 228 230 230 230 232 234 238 240 239 236 236 241 245 245 248 251 243 233 237 236 239 241 214 202 227 221 206 196 185 191 189 145 145 158 172 175 180 199 197 204 206 183 179 169 141
196 198 198 196 195 194 197 205 208 209 212 214 214 217 219 218 218 217 217 219 220 221 221 220 222 222 223 223 221 222 222 223 225 223 222 225 225 225 230 233 230 230 233 233 234 236 238 240 240 240 237 241 246 245 246 251 243 233 235 237 238 242 229 211 216 216 218 210 196 207 217 185 178 183 184 185 189 198 202 211 218 208 204 200 177
196 197 199 198 198 198 201 209 214 212 209 211 214 218 220 219 219 218 217 219 221 222 222 221 222 223 224 224 224 224 225 226 227 226 224 225 227 226 229 234 233 230 234 237 237 238 240 240 240 241 240 241 245 248 251 249 239 234 234 240 242 243 241 220 205 207 213 211 201 204 215 219 219 215 218 220 216 215 211 209 213 213 211 210 206
199 198 199 200 200 202 206 212 215 212 207 212 216 219 221 220 220 220 219 220 221 222 223 222 222 222 224 224 225 225 226 228 230 231 228 227 229 228 228 233 235 233 234 238 240 238 239 241 240 240 241 243 246 248 252 247 234 235 236 242 244 242 245 233 207 206 207 205 204 202 207 220 225 229 235 240 248 253 238 216 210 214 220 219 216
204 202 201 202 203 205 207 210 212 211 210 213 216 217 221 222 222 222 220 220 221 222 222 223 222 222 224 224 224 226 227 228 229 232 232 230 230 230 229 231 234 234 234 237 240 239 238 240 241 241 240 243 246 246 247 243 232 234 236 239 245 243 244 236 214 211 206 199 204 204 205 212 218 223 229 231 241 254 256 247 229 220 228 229 224
205 205 204 204 205 205 203 204 208 211 210 211 213 216 220 224 224 223 222 221 222 223 223 223 223 223 223 224 224 226 227 228 228 231 233 232 230 230 230 231 233 235 235 237 240 239 239 239 239 240 239 240 244 244 244 239 230 231 233 237 243 242 241 237 221 216 213 203 202 207 208 212 215 215 218 222 227 239 245 246 237 225 234 237 233
204 205 205 203 203 201 199 201 203 206 207 208 211 215 219 224 225 224 223 223 224 224 224 224 224 224 224 225 225 227 228 229 229 230 233 233 232 231 232 233 234 235 236 238 239 240 240 239 237 236 235 236 240 242 242 237 227 227 231 234 238 238 239 238 223 217 221 214 206 210 213 213 215 214 214 219 225 228 227 233 233 225 231 234 236
203 204 204 202 201 198 198 199 200 203 208 211 212 214 219 223 225 225 224 223 224 224 223 224 225 225 225 226 227 228 230 231 231 232 233 235 235 233 233 234 235 235 236 237 239 240 241 240 237 235 234 235 238 241 240 234 226 226 231 232 235 239 236 231 222 221 226 219 207 208 214 214 214 213 212 212 217 222 220 225 228 220 228 225 224
203 203 203 202 200 199 200 200 201 207 212 214 214 215 218 222 224 225 225 224 224 224 223 224 226 226 226 226 228 229 231 232 233 233 234 235 236 235 235 236 237 236 237 238 240 242 243 242 239 236 236 236 238 239 237 233 227 225 230 231 233 239 233 222 221 224 227 222 208 205 208 211 211 209 212 211 209 217 222 227 230 233 246 238 241
203 204 204 203 202 202 203 201 203 211 215 214 214 215 217 221 224 225 224 224 224 224 224 225 226 227 227 227 228 229 232 234 234 233 234 235 235 236 236 236 238 239 238 239 241 242 243 243 240 236 236 237 238 237 234 231 226 223 228 231 231 234 227 219 223 227 230 225 216 212 208 207 212 207 208 211 209 215 221 225 226 228 237 236 237
204 205 205 204 203 202 205 206 208 213 215 214 215 216 217 221 223 224 224 223 223 223 224 225 226 227 227 228 229 230 232 234 233 233 233 234 235 236 236 236 237 239 239 240 241 241 242 243 240 236 235 235 236 236 232 229 226 222 226 229 230 231 228 225 228 232 235 230 223 225 218 208 211 210 208 211 210 211 214 216 217 218 228 233 229
204 205 205 203 202 202 206 209 210 214 217 216 217 219 219 220 223 224 224 224 224 224 224 225 226 228 228 229 230 230 232 233 233 233 234 235 235 236 237 237 237 238 239 239 239 239 239 240 240 238 236 234 234 234 231 230 228 224 225 228 228 229 230 230 231 235 237 231 225 230 227 216 213 215 211 210 212 212 209 210 210 211 217 222 225
205 206 205 202 202 203 206 208 212 217 220 220 221 221 220 221 222 223 224 223 224 224 224 225 226 228 229 230 230 231 232 233 233 234 236 236 236 235 236 236 236 236 236 236 236 236 236 237 237 237 235 233 232 232 231 230 229 226 225 228 227 227 230 229 229 234 236 231 224 225 228 223 220 224 219 212 217 218 210 208 208 209 213 215 223
207 206 204 204 204 206 207 209 212 218 222 223 223 222 221 222 222 224 225 224 224 224 225 226 227 228 230 230 231 231 232 233 233 234 236 236 235 235 234 235 235 235 233 233 233 233 234 234 234 234 234 233 231 230 231 230 229 228 227 228 226 227 229 227 226 231 234 232 227 224 226 225 223 227 224 217 223 224 213 208 207 209 214 217 223
207 206 205 207 208 208 210 211 210 211 217 220 220 220 222 223 223 223 225 226 227 226 226 226 226 228 230 231 232 231 232 233 233 233 234 235 235 235 234 234 235 235 233 231 231 231 232 233 232 232 233 233 230 229 231 230 228 229 229 229 228 228 227 225 224 229 233 233 230 228 229 228 225 227 225 221 226 228 219 212 208 211 216 218 221
207 206 206 208 210 210 210 212 209 206 210 212 213 217 220 221 223 225 225 226 228 228 227 228 227 228 230 231 232 232 232 232 233 234 235 236 237 236 235 234 235 236 234 232 231 230 231 232 232 231 231 232 231 228 230 231 228 229 232 231 230 230 229 224 222 228 233 234 233 231 231 230 228 227 226 224 226 230 226 218 215 213 213 216 219
209 208 208 209 210 209 207 209 207 204 205 208 210 213 215 218 223 225 224 225 227 228 228 228 228 228 229 231 233 233 233 233 234 235 236 237 238 238 237 235 235 236 235 234 232 231 231 232 233 233 231 232 232 229 228 230 230 230 233 233 231 232 231 227 224 228 232 234 235 233 232 232 229 227 227 224 222 228 228 222 221 216 210 214 221
211 211 212 212 211 208 207 207 207 206 206 206 206 208 214 220 222 221 222 225 226 227 229 230 229 229 229 229 231 233 234 234 235 236 237 238 239 240 240 237 235 235 236 236 234 233 233 232 233 234 233 232 233 231 228 229 231 231 232 234 233 233 232 229 228 230 232 233 235 234 234 235 232 228 228 225 221 224 226 222 222 222 213 212 221
210 209 209 211 208 207 209 208 206 209 209 206 205 206 212 218 220 220 223 226 224 223 227 230 231 231 230 231 231 232 233 234 234 235 236 237 239 240 241 240 237 235 236 237 236 235 235 233 233 233 233 232 232 232 230 229 231 232 232 233 235 235 234 231 230 232 233 233 234 235 234 236 236 232 229 227 223 223 227 225 223 226 224 215 216
209 204 203 205 204 208 215 212 210 213 213 210 209 208 208 212 215 218 221 223 222 221 224 229 232 232 232 232 232 232 233 234 234 234 235 236 237 238 240 240 238 235 235 237 236 234 234 233 232 232 232 232 231 231 231 230 231 233 232 232 234 236 235 233 232 233 234 235 235 235 235 236 238 236 232 229 227 226 228 229 226 228 231 223 216
207 202 204 206 205 211 220 221 219 219 215 214 214 213 210 210 211 213 213 213 216 219 221 227 232 233 233 233 233 233 234 234 235 235 236 236 236 237 238 240 239 236 235 236 236 235 233 232 231 232 232 232 231 231 231 230 230 232 233 232 233 236 236 234 232 232 234 235 236 236 236 237 238 238 235 232 231 230 229 229 230 229 231 230 224
218 209 209 209 211 217 225 229 228 222 217 217 219 217 214 212 210 210 208 206 210 216 220 225 230 233 234 235 236 235 235 235 235 236 236 237 237 237 238 239 240 240 237 235 236 235 233 231 231 232 232 232 231 230 231 230 230 231 233 232 232 234 236 234 232 232 233 234 236 235 235 237 238 238 237 235 233 232 230 229 230 230 230 230 228
240 224 217 217 222 227 230 234 233 225 220 220 219 219 219 216 213 209 207 206 207 212 219 224 228 231 235 237 238 238 238 238 237 237 237 237 237 237 237 237 238 240 240 237 236 237 235 233 232 232 232 232 231 231 230 230 229 230 231 232 232 233 235 235 233 232 231 233 235 235 235 236 238 238 237 237 235 233 232 231 231 230 230 230 228
259 235 229 228 230 234 237 240 239 230 224 221 220 220 219 218 216 211 208 207 206 210 218 223 227 232 236 237 237 238 239 239 239 239 239 239 238 238 237 236 236 239 240 239 238 238 238 236 233 232 232 232 232 231 231 229 228 228 230 232 233 233 233 235 236 234 232 232 233 235 235 236 238 238 237 237 238 235 233 233 232 231 230 230 229
295 263 252 251 244 250 250 246 245 240 231 225 222 221 220 218 215 213 211 208 206 211 220 224 227 232 235 236 237 238 240 240 240 240 240 240 240 239 238 237 237 238 240 240 239 239 239 238 235 233 232 232 232 231 231 230 229 228 229 231 232 233 233 234 236 236 233 232 232 235 237 237 238 239 237 237 238 237 233 233 235 235 234 234 231
294 275 262 268 272 274 270 259 258 256 244 234 229 228 225 218 214 214 214 211 208 213 221 226 228 231 233 234 237 239 240 241 241 241 241 241 240 240 239 239 238 239 240 241 240 239 240 239 238 236 234 233 233 233 232 231 230 228 229 231 232 234 234 233 236 237 235 233 232 234 237 238 238 239 238 237 237 237 234 231 234 238 239 238 235
287 275 267 274 282 285 284 281 277 268 254 246 239 232 227 221 216 213 212 210 209 214 224 229 229 229 232 235 238 239 240 241 242 241 240 240 241 240 240 240 240 240 241 242 242 241 241 240 240 239 237 235 235 235 235 234 232 229 229 231 233 234 235 234 235 237 238 236 234 234 236 238 239 238 238 237 236 236 235 231 232 237 240 239 237
281 275 273 279 284 285 287 288 284 274 265 259 247 237 234 230 220 210 206 207 208 213 223 229 229 229 233 237 238 239 241 241 241 241 240 240 242 242 242 243 243 243 243 243 243 242 241 241 240 239 239 239 238 237 237 237 235 232 230 231 233 235 236 236 236 238 240 239 238 236 237 238 239 238 237 237 237 236 235 231 230 234 238 239 237
280 279 281 285 286 285 286 287 284 277 268 259 251 245 240 233 221 211 210 211 210 212 218 226 230 231 234 237 238 239 241 241 241 241 241 241 243 244 244 244 244 244 243 241 240 241 237 236 237 236 235 239 240 239 239 239 238 236 232 232 233 236 237 237 237 239 241 242 241 240 238 239 240 239 236 236 237 237 234 232 231 231 235 239 239
279 280 281 283 283 284 283 282 280 277 269 257 249 242 233 225 218 215 217 217 215 214 218 225 231 233 234 236 237 238 239 240 241 241 241 242 244 244 245 244 243 243 242 238 237 239 235 229 232 232 229 233 237 239 241 240 240 238 235 233 234 235 237 238 237 239 241 242 243 242 241 241 241 240 237 235 237 238 235 231 232 234 236 240 243
276 277 279 280 279 278 277 278 278 279 276 262 246 231 221 217 214 213 216 219 219 218 220 226 232 235 237 237 237 239 239 239 239 240 240 241 243 244 244 243 242 242 241 239 238 237 231 227 231 231 230 230 231 235 240 241 241 240 236 234 232 233 236 237 237 238 239 241 243 243 242 241 240 240 239 236 237 239 237 232 232 235 237 240 246
273 275 276 276 276 275 275 276 277 278 275 261 242 224 214 211 209 209 212 217 221 222 223 227 232 235 237 238 238 239 240 239 239 239 240 242 243 243 244 243 243 241 240 241 241 236 229 229 231 232 233 232 229 232 237 240 241 241 237 233 230 231 234 236 236 237 238 239 241 241 241 240 240 239 238 236 237 239 239 236 233 235 238 240 243
271 272 272 272 273 274 275 277 277 274 268 255 238 220 210 208 206 206 207 213 222 227 228 230 233 234 236 237 238 240 240 240 240 241 243 243 243 243 244 244 244 243 242 242 240 236 235 235 231 230 233 232 230 233 236 238 240 241 239 235 231 230 232 234 235 235 236 238 239 240 240 239 239 239 237 235 236 238 239 238 234 234 238 239 236
269 270 270 270 270 273 276 277 270 262 254 246 234 215 209 208 206 204 205 213 224 230 231 231 233 233 235 237 239 240 242 243 243 244 244 243 243 244 244 245 247 246 245 242 237 235 239 238 231 232 235 234 231 232 235 238 240 241 239 236 233 231 232 233 235 235 236 238 239 240 240 239 238 238 238 235 235 237 237 237 235 233 234 236 232
268 268 268 269 270 271 270 263 253 247 240 234 225 210 206 209 207 206 208 215 226 232 232 233 234 235 237 240 241 243 244 244 244 244 243 244 244 244 245 246 247 245 244 242 238 235 236 234 232 234 236 235 232 231 233 236 238 240 240 237 234 233 233 233 234 235 236 237 238 239 240 239 237 236 237 236 235 236 236 236 235 232 233 236 231
270 266 264 265 265 260 248 239 241 239 228 220 214 204 203 208 209 211 213 216 225 234 237 237 237 237 238 241 243 244 245 245 245 244 244 243 244 244 245 247 246 242 240 241 241 238 235 233 233 234 233 234 235 233 233 236 237 239 241 239 235 234 235 234 234 235 235 237 238 238 237 238 237 235 234 235 236 236 236 236 235 233 235 236 228
273 271 265 256 253 247 237 234 235 229 218 212 204 197 199 205 209 214 218 217 221 231 236 238 238 237 237 239 242 243 244 245 245 245 244 244 245 245 247 248 245 241 238 241 243 242 238 233 233 236 234 235 238 236 234 236 237 237 239 240 238 236 234 234 235 235 236 237 238 238 238 240 240 237 233 234 237 237 236 235 235 234 233 232 225
284 289 283 261 250 238 226 223 219 211 206 202 197 192 192 197 204 208 210 209 209 217 226 233 236 237 235 237 241 244 246 246 246 247 247 247 248 247 247 247 246 242 241 241 242 243 239 233 233 237 236 236 237 237 235 237 239 238 238 240 241 239 235 234 235 236 237 237 236 237 238 241 242 240 234 233 236 238 237 234 233 233 232 230 225
301 304 300 288 271 235 217 211 204 199 193 187 190 192 188 192 201 204 204 206 208 214 223 230 234 236 234 233 236 242 247 248 249 249 248 248 248 246 244 244 244 242 240 237 236 239 239 235 235 237 236 235 236 236 237 240 242 242 242 242 242 241 237 235 236 237 236 236 235 234 236 238 239 238 234 233 235 238 236 234 233 231 229 226 221
295 308 327 353 2 38 153 178 184 190 189 185 188 193 194 197 202 203 206 212 216 221 227 231 234 236 234 232 233 238 244 248 250 249 248 248 247 244 243 243 241 237 236 236 235 237 238 237 237 237 236 237 236 234 237 242 245 245 245 245 245 244 239 236 237 237 233 231 230 228 228 232 235 234 231 231 234 236 235 231 229 226 222 218 214
256 311 51 81 82 75 76 86 112 152 176 182 186 192 198 201 200 200 206 211 215 221 225 227 229 230 229 229 230 233 240 246 249 249 248 249 248 245 245 244 239 233 236 237 236 236 237 238 238 238 237 239 238 236 240 246 247 246 246 247 247 248 244 239 238 238 234 228 225 222 223 229 231 228 226 228 230 230 227 223 221 221 219 214 209
149 115 101 114 114 93 85 82 82 88 107 134 156 172 184 192 194 200 206 208 212 218 219 220 221 223 223 225 225 225 228 235 242 243 242 243 243 242 242 241 237 235 238 239 237 238 239 239 240 240 240 241 241 240 242 247 248 246 245 246 246 247 246 241 237 236 233 230 227 225 226 231 231 225 222 223 224 222 218 215 215 215 215 212 207
110 115 110 108 104 98 94 88 83 84 86 86 89 96 105 123 149 169 180 189 200 208 214 217 218 219 222 222 222 224 225 224 229 235 234 232 233 234 237 240 239 238 239 240 241 242 242 242 243 244 244 243 242 240 240 246 250 248 245 245 246 246 243 239 236 233 230 228 227 225 225 227 228 224 219 215 214 213 212 212 212 210 209 208 206
114 111 97 93 97 97 93 89 85 83 83 82 80 80 79 77 84 100 114 131 156 173 190 200 198 199 213 217 217 227 232 228 227 232 234 234 235 234 236 241 243 243 242 241 243 244 246 248 248 248 246 244 245 244 243 246 253 256 255 254 255 253 248 245 241 235 228 225 224 223 222 222 222 221 217 212 209 207 206 206 205 204 203 204 204
93 91 86 84 87 89 90 90 85 78 80 82 78 73 71 69 70 84 98 106 122 137 145 154 159 168 190 198 198 213 229 231 229 233 239 245 249 249 245 244 245 246 245 245 244 245 248 249 248 248 248 247 248 251 252 253 258 264 267 265 264 263 260 254 246 234 225 223 222 220 219 220 220 219 216 212 208 204 200 197 196 198 202 204 205
95 92 89 83 81 83 84 82 80 79 83 86 82 75 73 73 74 80 91 103 118 126 128 135 146 156 169 181 190 207 225 231 235 239 241 245 254 260 258 254 252 251 251 252 252 253 254 254 253 253 254 254 254 254 256 257 260 265 268 267 266 266 260 253 245 234 224 220 220 219 219 220 221 219 215 212 208 201 197 195 194 197 202 204 204